[[{"header":{"parameterUnit":"m.s-1","parameterCategory":1,"la1":30.2991,"la2":30.254,"lo1":-89.0895,"lo2":-89.0444,"dy":0.0017,"dx":0.0017,"nx":28,"ny":28,"refTime":"2023-10-27T21:00:00:Z","depth":0,"parameterNumber":2,"parameterNumberName":"U-component_of_WINDS"},"data":[0,0,0,0,0,0,0,0,0,0,0,0,0,0,0,0,0,0,0,0,0,0,0,0,0,0,0,0,0,0,0,0,0,0,0,0,0,0,0,0,0,0,0,0,0,0,0,0,0,0,0,0,0,0,0,0,0,0,-2.3744,-2.3744,0,-2.3709,-2.3709,-2.3709,-2.3629,-2.3627,-2.3626,-2.3624,-2.3589,-2.3589,-2.359,0,0,0,0,0,0,0,0,0,0,0,0,0,-2.3744,-2.3745,-2.3744,-2.3744,-2.3744,-2.371,-2.3709,-2.3709,-2.3629,-2.3627,-2.3625,-2.3623,-2.3588,-2.3589,-2.359,0,0,0,0,0,0,0,0,0,0,0,0,0,-2.373,-2.3745,-2.3745,-2.37,-2.3695,-2.371,-2.3709,-2.3708,-2.363,-2.3627,-2.3625,-2.3622,-2.3588,-2.3589,-2.359,-2.3645,0,0,-2.3593,-2.3593,0,0,0,0,0,0,0,0,-2.3731,-2.373,-2.3707,-2.3703,-2.3698,-2.3671,-2.3696,-2.3687,-2.363,-2.3655,-2.3624,-2.3621,-2.3618,-2.3616,-2.3615,-2.3643,-2.3642,-2.3593,-2.3593,-2.3594,-2.3594,0,0,0,0,0,0,0,-2.3732,-2.3732,-2.3731,-2.3707,-2.3701,-2.3682,-2.3677,-2.3694,-2.3651,-2.3652,-2.3646,-2.3643,-2.3615,-2.3615,-2.3614,-2.3641,-2.3593,-2.3594,-2.3594,-2.3594,-2.3714,-2.3716,0,0,0,0,0,0,-2.374,-2.3733,-2.3732,-2.3729,-2.3709,-2.3684,-2.3679,-2.3682,-2.365,-2.3643,-2.3646,-2.364,-2.3614,-2.3613,-2.3612,-2.3674,-2.3594,-2.3595,-2.3595,-2.3711,-2.3714,-2.3717,0,0,0,0,0,0,-2.374,-2.374,-2.3733,-2.373,-2.3727,-2.3687,-2.3691,-2.3683,-2.3682,-2.3645,-2.3637,-2.3653,-2.3612,-2.3611,-2.3638,-2.3672,-2.3595,-2.3596,-2.3708,-2.3712,-2.3716,-2.3799,0,0,0,0,0,0,-2.374,-2.3741,-2.3761,-2.3731,-2.3728,-2.3759,-2.3693,-2.3684,-2.3684,-2.3676,-2.365,-2.3643,-2.361,-2.3637,-2.3638,-2.3672,-2.3596,-2.3704,-2.371,-2.3714,-2.3793,-2.3806,-2.3816,0,0,0,0,0,-2.374,-2.3785,-2.3762,-2.3762,-2.3752,-2.3761,-2.3759,-2.372,-2.3687,-2.3707,-2.3683,-2.3644,-2.3669,-2.364,-2.3641,-2.3676,-2.3702,-2.3708,-2.3714,-2.3788,-2.3803,-2.3816,0,0,0,0,0,0,-2.382,-2.378,-2.3754,-2.379,-2.378,-2.3747,-2.3771,-2.3737,-2.3736,-2.3728,-2.3681,-2.3676,-2.3709,-2.3695,-2.3664,-2.3728,-2.3679,-2.3686,-2.3735,-2.3749,-2.376,-2.3762,-2.3597,0,0,0,0,0,-2.3842,-2.3852,-2.3817,-2.3853,-2.3849,-2.3811,-2.3814,-2.3785,-2.3772,-2.3767,-2.3745,-2.3734,-2.3739,-2.3744,-2.3747,-2.3792,-2.3785,-2.3816,-2.3828,-2.3837,-2.3843,-2.3867,-2.388,-2.3736,-2.3736,-2.3736,0,0,-2.3886,-2.3866,-2.3876,-2.3868,-2.3856,-2.3869,-2.3808,-2.3823,-2.3832,-2.3769,-2.3792,-2.3777,-2.3762,-2.3798,-2.3813,-2.3787,-2.3882,-2.3845,-2.3853,-2.3853,-2.3874,-2.3888,-2.39,-2.374,-2.374,-2.3739,0,0,-2.3974,-2.396,-2.3988,-2.3978,-2.3961,-2.3937,-2.3944,-2.3917,-2.3904,-2.3927,-2.3881,-2.3892,-2.3901,-2.3893,-2.3889,-2.3977,-2.3941,-2.398,-2.4039,-2.4063,-2.4074,-2.4084,-2.4115,-2.4127,-2.3986,-2.3986,-2.3986,0,-2.4031,-2.4048,-2.4007,-2.4026,-2.4024,-2.3969,-2.3998,-2.399,-2.3976,-2.3976,-2.3948,-2.3961,-2.3947,-2.398,-2.4002,-2.4002,-2.4008,-2.3981,-2.4076,-2.4085,-2.4094,-2.4123,-2.4135,-2.3991,-2.399,-2.399,-2.3989,0,-2.4119,-2.4132,-2.4157,-2.4144,-2.4146,-2.417,-2.4133,-2.414,-2.4113,-2.4091,-2.4116,-2.4098,-2.4097,-2.4103,-2.4076,-2.4134,-2.4118,-2.4084,-2.4034,-2.4113,-2.4139,-2.415,-2.3998,-2.3996,-2.3995,-2.3993,0,0,-2.4252,-2.422,-2.4229,-2.4223,-2.4203,-2.4211,-2.4234,-2.4233,-2.4239,-2.4232,-2.425,-2.4261,-2.423,-2.4226,-2.4198,-2.4219,-2.429,-2.4182,-2.4181,-2.4202,-2.4353,-2.4378,-2.4391,-2.4267,-2.4269,-2.4271,-2.4354,0,-2.4334,-2.4369,-2.4335,-2.4377,-2.4388,-2.4338,-2.4357,-2.4347,-2.4329,-2.4336,-2.4316,-2.4324,-2.4282,-2.428,-2.4299,-2.4278,-2.432,-2.4271,-2.4283,-2.4284,-2.4286,-2.4405,-2.4431,-2.451,-2.4364,-2.4366,-2.4367,0,-2.4432,-2.443,-2.4474,-2.4452,-2.4455,-2.4473,-2.4471,-2.4478,-2.4467,-2.4452,-2.445,-2.4416,-2.4438,-2.4391,-2.4419,-2.4387,-2.439,-2.4381,-2.4383,-2.4381,-2.4329,-2.4406,-2.4535,-2.4546,-2.4383,-2.4382,-2.4381,0,-2.4524,-2.4533,-2.456,-2.4557,-2.4532,-2.4546,-2.4536,-2.4522,-2.4525,-2.4523,-2.4524,-2.4525,-2.4525,-2.4527,-2.4495,-2.4464,-2.4528,-2.4478,-2.4516,-2.4517,-2.453,-2.4529,-2.466,-2.4535,-2.4535,-2.4535,-2.4534,0,-2.4618,-2.4646,-2.4601,-2.4618,-2.4649,-2.461,-2.4642,-2.4627,-2.4616,-2.4629,-2.4587,-2.4601,-2.4559,-2.4568,-2.4544,-2.4572,-2.4572,-2.4561,-2.4554,-2.4564,-2.4565,-2.4564,-2.4557,-2.4538,-2.4537,-2.4536,-2.4536,0,-2.4724,-2.4695,-2.4721,-2.4697,-2.4692,-2.4715,-2.4694,-2.4709,-2.4689,-2.4707,-2.4709,-2.4678,-2.4687,-2.4656,-2.4661,-2.4644,-2.4685,-2.4669,-2.4689,-2.4683,-2.4723,-2.4719,-2.4856,-2.4872,-2.4738,-2.474,-2.4741,0,-2.4784,-2.4805,-2.4783,-2.4789,-2.4782,-2.4793,-2.4795,-2.4759,-2.4764,-2.4754,-2.477,-2.4776,-2.4779,-2.4797,-2.4774,-2.4778,-2.4761,-2.481,-2.4761,-2.4771,-2.4761,-2.4759,-2.4761,-2.4819,-2.482,-2.4822,-2.4823,0,-2.4894,-2.4879,-2.4884,-2.4886,-2.489,-2.4889,-2.4885,-2.4893,-2.4855,-2.4863,-2.4872,-2.4874,-2.488,-2.4886,-2.4886,-2.4876,-2.4843,-2.4839,-2.4847,-2.4857,-2.4866,-2.4861,-2.4714,-2.4835,-2.4834,-2.4833,-2.4832,-2.4832,-2.4978,-2.4994,-2.4982,-2.499,-2.4984,-2.4982,-2.4995,-2.4978,-2.4985,-2.4987,-2.4966,-2.498,-2.497,-2.4966,-2.496,-2.4971,-2.4949,-2.4962,-2.4965,-2.4968,-2.4974,-2.4867,-2.4971,-2.4971,-2.497,-2.497,-2.497,0,-2.5084,-2.5075,-2.5083,-2.5079,-2.5086,-2.5056,-2.5051,-2.5059,-2.5072,-2.5066,-2.507,-2.5082,-2.5089,-2.5069,-2.5073,-2.5086,-2.5071,-2.5088,-2.5086,-2.5084,-2.4994,-2.4986,-2.51,-2.51,-2.51,-2.51,-2.51,-2.51,-2.514,-2.5167,-2.5152,-2.5176,-2.5166,-2.518,-2.518,-2.5178,-2.5173,-2.5188,-2.5194,-2.5182,-2.517,-2.5174,-2.5179,-2.5173,-2.5176,-2.5199,-2.5187,-2.5103,-2.509,-2.5078,-2.507,-2.52,-2.52,-2.5276,-2.5277,-2.5277]},{"header":{"parameterUnit":"m.s-1","parameterCategory":1,"la1":30.2991,"la2":30.254,"lo1":-89.0895,"lo2":-89.0444,"dy":0.0017,"dx":0.0017,"nx":28,"ny":28,"refTime":"2023-10-27T21:00:00:Z","depth":0,"parameterNumber":3,"parameterNumberName":"V-component_of_WINDS"},"data":[0,0,0,0,0,0,0,0,0,0,0,0,0,0,0,0,0,0,0,0,0,0,0,0,0,0,0,0,0,0,0,0,0,0,0,0,0,0,0,0,0,0,0,0,0,0,0,0,0,0,0,0,0,0,0,0,0,0,0.3231,0.3228,0,0.2986,0.2984,0.2981,0.2934,0.2936,0.2938,0.294,0.2686,0.2678,0.267,0,0,0,0,0,0,0,0,0,0,0,0,0,0.3659,0.3651,0.3231,0.3228,0.3225,0.2987,0.2983,0.298,0.2934,0.2936,0.2938,0.294,0.2689,0.2679,0.2669,0,0,0,0,0,0,0,0,0,0,0,0,0,0.3449,0.3649,0.3232,0.3173,0.3166,0.2988,0.2983,0.2979,0.2933,0.2936,0.2939,0.2942,0.2693,0.268,0.2667,0.253,0,0,0.2628,0.2623,0,0,0,0,0,0,0,0,0.3461,0.3434,0.3185,0.3177,0.3168,0.2994,0.3041,0.2828,0.2932,0.3021,0.294,0.2943,0.2786,0.2766,0.2713,0.2518,0.2507,0.2627,0.2619,0.2614,0.261,0,0,0,0,0,0,0,0.3476,0.3444,0.3134,0.3181,0.3171,0.3159,0.3133,0.3001,0.289,0.3014,0.301,0.2982,0.2782,0.2726,0.2707,0.2503,0.2627,0.2616,0.2608,0.2603,0.2186,0.2183,0,0,0,0,0,0,0.3501,0.3456,0.3142,0.3127,0.3325,0.3149,0.312,0.3047,0.2892,0.2871,0.2979,0.298,0.2746,0.2722,0.2698,0.2528,0.2614,0.2602,0.2595,0.2189,0.2185,0.2181,0,0,0,0,0,0,0.351,0.3473,0.3152,0.3291,0.3249,0.3139,0.3057,0.304,0.2984,0.2866,0.2846,0.2942,0.2748,0.2716,0.2573,0.2518,0.2596,0.2584,0.2193,0.2188,0.2183,0.2185,0,0,0,0,0,0,0.3523,0.3477,0.3423,0.329,0.3242,0.303,0.3054,0.3033,0.2962,0.2961,0.2825,0.2806,0.2748,0.2592,0.256,0.2502,0.2574,0.2197,0.2191,0.2185,0.219,0.2181,0.2174,0,0,0,0,0,0.3538,0.3432,0.342,0.3383,0.3172,0.3027,0.3,0.2936,0.2958,0.2903,0.2828,0.281,0.253,0.2578,0.2541,0.2478,0.22,0.2193,0.2185,0.2193,0.2183,0.2174,0,0,0,0,0,0,0.356,0.3413,0.3399,0.3247,0.315,0.302,0.2948,0.2926,0.282,0.2824,0.2749,0.2718,0.258,0.2515,0.2571,0.2339,0.2367,0.2351,0.2385,0.2374,0.2367,0.2384,0.2564,0,0,0,0,0,0.3547,0.3443,0.332,0.3198,0.315,0.3058,0.2993,0.2952,0.2849,0.2807,0.2721,0.2621,0.2511,0.2439,0.2331,0.2181,0.2152,0.2121,0.2113,0.2107,0.2094,0.2012,0.1997,0.2156,0.2156,0.2156,0,0,0.3519,0.3427,0.3364,0.32,0.312,0.3014,0.3023,0.2909,0.283,0.2789,0.2649,0.2583,0.2467,0.232,0.2251,0.2262,0.2044,0.2097,0.2093,0.2083,0.2002,0.1987,0.1974,0.2151,0.2152,0.2153,0,0,0.3413,0.3333,0.3223,0.3144,0.3024,0.2964,0.2939,0.2812,0.2767,0.2626,0.2594,0.2499,0.231,0.2229,0.2163,0.2033,0.2013,0.2,0.1957,0.1878,0.1865,0.1854,0.1808,0.1792,0.1988,0.1988,0.1988,0,0.3393,0.3231,0.3169,0.3057,0.2986,0.2948,0.2836,0.2762,0.2613,0.2565,0.258,0.2345,0.2264,0.2099,0.2068,0.2016,0.1984,0.2013,0.1873,0.186,0.1848,0.1804,0.1787,0.1987,0.1987,0.1987,0.1987,0,0.3213,0.3102,0.3027,0.2886,0.2808,0.2696,0.2618,0.2545,0.2514,0.2453,0.2311,0.2213,0.2086,0.2044,0.2011,0.1875,0.1886,0.1888,0.1914,0.1834,0.179,0.1773,0.1986,0.1986,0.1986,0.1986,0,0,0.3109,0.2939,0.2912,0.2849,0.2717,0.2629,0.2518,0.2395,0.2335,0.2235,0.214,0.1984,0.1986,0.1912,0.187,0.1801,0.1705,0.1811,0.1807,0.1794,0.1551,0.155,0.1531,0.1693,0.1689,0.1686,0.1561,0,0.2987,0.2787,0.2729,0.2561,0.2458,0.2423,0.2326,0.2235,0.2177,0.2081,0.2017,0.1907,0.1918,0.1873,0.1804,0.1731,0.1655,0.174,0.1603,0.1599,0.1632,0.1508,0.1505,0.1391,0.1543,0.154,0.1538,0,0.2816,0.2715,0.2537,0.2421,0.2376,0.229,0.2174,0.2084,0.1981,0.1943,0.1863,0.1828,0.1712,0.1748,0.1587,0.1646,0.1588,0.1544,0.1539,0.1522,0.1562,0.1487,0.1353,0.1336,0.1511,0.1513,0.1515,0,0.2759,0.2578,0.2449,0.2396,0.2257,0.2198,0.2138,0.2038,0.1969,0.1868,0.1823,0.171,0.1648,0.1562,0.1498,0.153,0.1344,0.1373,0.1309,0.1311,0.1269,0.1272,0.1123,0.1234,0.1234,0.1235,0.1235,0,0.2627,0.2519,0.2422,0.2342,0.2221,0.2158,0.204,0.1978,0.189,0.1799,0.1762,0.1677,0.1598,0.1503,0.1453,0.1329,0.1301,0.1268,0.1255,0.127,0.1274,0.1229,0.1234,0.123,0.1231,0.1232,0.1233,0,0.254,0.2471,0.2327,0.221,0.2178,0.2094,0.1993,0.1915,0.1858,0.1742,0.1712,0.162,0.1507,0.1436,0.1291,0.1258,0.1121,0.1112,0.1156,0.115,0.109,0.1096,0.0905,0.0877,0.1008,0.1007,0.1006,0,0.246,0.2377,0.2251,0.2188,0.2128,0.2026,0.1956,0.1892,0.1821,0.17,0.1637,0.1522,0.1426,0.1246,0.1167,0.1057,0.1045,0.0986,0.1028,0.1046,0.1044,0.1049,0.1041,0.0978,0.0977,0.0976,0.0975,0,0.2325,0.2296,0.2197,0.2087,0.2006,0.1916,0.1826,0.1776,0.1697,0.162,0.1504,0.143,0.1285,0.1171,0.1055,0.0993,0.0971,0.0963,0.0943,0.0956,0.0985,0.0968,0.1136,0.0967,0.0968,0.0968,0.0969,0.0969,0.2238,0.2164,0.2065,0.1957,0.1884,0.1802,0.1724,0.1658,0.1561,0.1437,0.1406,0.1286,0.1189,0.1031,0.0967,0.0873,0.0881,0.0851,0.0843,0.0836,0.0835,0.1002,0.0851,0.0851,0.0852,0.0852,0.0852,0,0.2101,0.2037,0.1939,0.1816,0.1732,0.1722,0.1623,0.1553,0.1448,0.136,0.1267,0.1136,0.1027,0.0942,0.083,0.0771,0.0758,0.0743,0.0746,0.0733,0.0834,0.0863,0.0756,0.0756,0.0756,0.0756,0.0756,0.0756,0.202,0.1894,0.1854,0.1692,0.1628,0.1511,0.1456,0.1381,0.131,0.1166,0.1076,0.1022,0.0935,0.0818,0.0718,0.0696,0.0656,0.0643,0.0619,0.0715,0.0725,0.0735,0.0762,0.0636,0.0635,0.0526,0.0525,0.0524]}]]